Location: Sihaung
(22.8641°N, 94.0549°E)
Time: 16:23:33
(UTC+00:00)

Cosmos 2366 rocket - Pass Details

Date: 03 March 2021
Orbit: 954 x 997 km, 82.9° (Epoch: 13 April)

Event Time Altitude Azimuth Distance (km) Brightness Sun altitude
Rises 12:59:51 0° 172° (S) 3,660 6.9 -17.3°
Reaches altitude 10° 13:02:24 10° 167° (SSE) 2,721 6.2 -17.9°
Maximum altitude 13:08:27 54° 91° (E) 1,181 4.0 -19.3°
Drops below altitude 10° 13:14:35 10° 16° (NNE) 2,755 6.2 -20.7°
Sets 13:17:10 0° 12° (NNE) 3,710 6.9 -21.3°
